Content
SEND FEEDBACK

Daily
Averages
Monthly
Summary
Canada

QUEBEC CITY AIRPORT, QUEBEC


Home > North America > Canada > Quebec
Elevation: 244 feet     Latitude: 46 48N     Longitude: 71 23W

WEATHER
 
SELECT A DAY
Number of Records: 191,770;   Date Range: 6/30/96 - 7/9/14
 
SHARE

PRINT THIS DATA

[ ← Previous Day ]
WEATHER ALMANAC - MAY 7, 2013
[ Next Day → ]
[ °C ]   °F
Weather ElementAverageHighLow
Temperature69.5 °F82.4 °F (4:00 pm)55.4 °F (5:00 am)
Dewpoint37.2 °F43 °F (11:00 pm)33 °F (11:00 am)
Humidity29.6 %47 % (5:00 am)10 % (5:00 pm)
Barometer30.03 in30.09 in (11:00 pm)29.96 in (5:00 pm)
Wind Speed10.2 mph20.7 mph (4:00 pm)
Wind Gust27.6 mph (3:00 pm)
Weather ElementAverage
Visibility25 mi
Wind DirectionSSW (215.5 °)

Weather ElementTotal
Precipitation---
Cooling Degree Days3.9 (Base 65)
Growing Degree Days18.9 (Base 50)
Averaged from 31 records on May 7, 2013
WEATHER CONDITIONS BREAKOUT
WIND DIRECTION BREAKOUT
WEATHER BY HOUR - MAY 7, 2013
[ °C ]   °F
Local TimeTemperatureDewpointHumidityBarometerVisibilityWind DirectionWind SpeedGust SpeedPrecipitationEventsConditions
1:00 AM62.6 °F37.4 °F39 %30.01 in15.0 miWSW (250°)12.7 mphMostly Cloudy
2:00 AM65.0 °F36.0 °F23 %29.99 inWSW (240°)9.2 mph
2:00 AM62.6 °F37.4 °F39 %30.00 in15.0 miWSW (250°)13.8 mphMostly Cloudy
3:00 AM59.0 °F37.4 °F45 %30.01 in15.0 miSW (220°)10.4 mphScattered Clouds
4:00 AM59.0 °F35.6 °F42 %30.03 in15.0 miSW (230°)9.2 mphScattered Clouds
5:00 AM57.0 °F36.0 °F33 %30.01 inWSW (240°)5.8 mph
5:00 AM55.4 °F35.6 °F47 %30.04 in30.0 miWSW (240°)9.2 mphScattered Clouds
6:00 AM55.4 °F35.6 °F47 %30.05 in30.0 miCalmScattered Clouds
7:00 AM59.0 °F35.6 °F42 %30.06 in30.0 miSW (230°)5.8 mphScattered Clouds
8:00 AM61.0 °F35.0 °F26 %30.05 inWSW (240°)9.2 mph
8:00 AM60.8 °F35.6 °F39 %30.07 in30.0 miWest (260°)10.4 mphScattered Clouds
9:00 AM66.2 °F37.4 °F35 %30.07 in30.0 miWSW (240°)13.8 mphScattered Clouds
10:00 AM69.8 °F37.4 °F31 %30.07 in30.0 miWSW (250°)10.4 mph17.3 mphPartly Cloudy
11:00 AM72.0 °F33.0 °F14 %30.04 inWSW (240°)10.4 mph
11:00 AM73.4 °F37.4 °F27 %30.06 in30.0 miWest (260°)13.8 mphPartly Cloudy
12:00 PM77.0 °F37.4 °F24 %30.04 in30.0 miWest (270°)15.0 mphPartly Cloudy
1:00 PM78.8 °F37.4 °F23 %30.03 in30.0 miWSW (240°)15.0 mph21.9 mphPartly Cloudy
2:00 PM80.0 °F35.0 °F11 %29.99 inSW (220°)11.5 mph
2:00 PM80.6 °F37.4 °F21 %30.01 in30.0 miSW (230°)13.8 mph21.9 mphMostly Cloudy
3:00 PM80.6 °F37.4 °F21 %29.99 in30.0 miSSW (210°)19.6 mph27.6 mphMostly Cloudy
4:00 PM82.4 °F37.4 °F20 %29.98 in30.0 miSW (220°)20.7 mphMostly Cloudy
5:00 PM82.0 °F36.0 °F10 %29.96 inWSW (250°)10.4 mph
5:00 PM82.4 °F37.4 °F20 %29.98 in30.0 miSW (220°)15.0 mph23.0 mphMostly Cloudy
6:00 PM80.6 °F37.4 °F21 %29.99 in30.0 miWSW (240°)12.7 mphMostly Cloudy
7:00 PM78.8 °F37.4 °F23 %30.00 in30.0 miSW (230°)9.2 mphMostly Cloudy
8:00 PM72.0 °F39.0 °F20 %30.00 inWSW (250°)3.5 mph
8:00 PM71.6 °F39.2 °F31 %30.02 in20.0 miWest (270°)4.6 mphScattered Clouds
9:00 PM71.6 °F39.2 °F31 %30.04 in15.0 miSSW (210°)4.6 mphPartly Cloudy
10:00 PM69.8 °F39.2 °F33 %30.06 in15.0 miNNE (20°)4.6 mphMostly Cloudy
11:00 PM63.0 °F43.0 °F37 %30.06 inEast (100°)3.5 mph
11:00 PM64.4 °F41.0 °F42 %30.09 in15.0 miESE (110°)6.9 mphScattered Clouds
Hourly data recorded from CYQB, located miles away from Quebec City Airport, Quebec







STORIES FROM OUR PARTNERS